Windom, MN

11:49 PM CDT on July 25, 2017 (GMT -0500)
Windom Municipal

Weather History for KMWM - September, 2013

Change the Weather History Date:

Friday, September 6, 2013

  Actual Average Record
Temperature  
Mean Temperature 78 °F -  
Max Temperature 89 °F 78 °F 100 °F (1976)
Min Temperature 66 °F 53 °F 35 °F (1956)
Cooling Degree Days 12    
Growing Degree Days 28 (Base 50)    
Moisture  
Dew Point 65 °F    
Average Humidity 65    
Maximum Humidity 88    
Minimum Humidity 43    
Precipitation  
Precipitation 0.03 in - - ()
Sea Level Pressure  
Sea Level Pressure 30.00 in    
Wind  
Wind Speed 7 mph (South)    
Max Wind Speed 20 mph    
Max Gust Speed 26 mph    
Visibility 10 miles    
Events Rain , Thunderstorm    
Averages and records for this station are not official NWS values.
T = Trace of Precipitation, MM = Missing Value Source: NWS Daily Summary

Daily Weather History Graph

Daily Weather History Graph

Search for Another Location

Airport or City:

Trip Planner

Search our weather history database for the weather conditions in past years. The results will help you decide how hot, cold, wet, or windy it might be!

Date:

Astronomy

Sep. 06, 2013 Rise Set
Actual Time 6:49 AM CDT 7:46 PM CDT
Civil Twilight 6:20 AM CDT 8:16 PM CDT
Nautical Twilight 5:45 AM CDT 8:50 PM CDT
Astronomical Twilight 5:08 AM CDT 9:27 PM CDT
Moon 8:07 AM CDT (9/6) 8:06 PM CDT (9/6)
Length of Visible Light 13h 55m
Length of Day
12h 56m
New Moon, 2% of the Moon is Illuminated
Sep 6
New Moon
Sep 12
First Quarter
Sep 19
Full
Sep 26
Last Quarter
Oct 4
New

Hourly Weather History & Observations

Time (CDT) Temp. Heat Index Dew Point Humidity Pressure Visibility Wind Dir Wind Speed Gust Speed Precip Events Conditions
12:12 AM 69.8 °F - 60.8 °F 73% 30.11 in 10.0 mi South 4.6 mph - N/A   Clear
12:32 AM 68.0 °F - 60.8 °F 78% 30.11 in 10.0 mi Calm Calm - N/A   Clear
12:52 AM 66.2 °F - 60.8 °F 83% 30.11 in 10.0 mi South 3.5 mph - N/A   Clear
1:12 AM 69.8 °F - 60.8 °F 73% 30.11 in 10.0 mi South 4.6 mph - N/A   Clear
1:33 AM 68.0 °F - 60.8 °F 78% 30.11 in 10.0 mi South 3.5 mph - N/A   Clear
1:52 AM 68.0 °F - 60.8 °F 78% 30.11 in 10.0 mi South 3.5 mph - N/A   Clear
2:13 AM 68.0 °F - 60.8 °F 78% 30.11 in 10.0 mi Calm Calm - N/A   Scattered Clouds
2:32 AM 66.2 °F - 62.6 °F 88% 30.11 in 10.0 mi SSE 4.6 mph - N/A   Scattered Clouds
2:53 AM 68.0 °F - 62.6 °F 83% 30.11 in 10.0 mi Calm Calm - N/A   Scattered Clouds
3:12 AM 68.0 °F - 62.6 °F 83% 30.10 in 10.0 mi SSE 5.8 mph - N/A   Clear
3:32 AM 69.8 °F - 62.6 °F 78% 30.10 in 10.0 mi South 8.1 mph - N/A   Clear
3:52 AM 69.8 °F - 62.6 °F 78% 30.10 in 10.0 mi South 5.8 mph - N/A   Scattered Clouds
4:12 AM 68.0 °F - 64.4 °F 88% 30.09 in 10.0 mi South 6.9 mph - 0.03 in Rain Light Rain
4:32 AM 69.8 °F - 62.6 °F 78% 30.10 in 10.0 mi South 5.8 mph - 0.03 in   Mostly Cloudy
4:52 AM 69.8 °F - 62.6 °F 78% 30.09 in 10.0 mi South 5.8 mph - 0.03 in   Overcast
5:13 AM 69.8 °F - 62.6 °F 78% 30.09 in 10.0 mi South 5.8 mph - N/A   Overcast
5:32 AM 69.8 °F - 62.6 °F 78% 30.09 in 10.0 mi South 6.9 mph - N/A Rain , Thunderstorm Light Thunderstorms and Rain
5:52 AM 69.8 °F - 62.6 °F 78% 30.09 in 10.0 mi SSE 6.9 mph - N/A   Mostly Cloudy
6:13 AM 69.8 °F - 62.6 °F 78% 30.08 in 10.0 mi SSE 6.9 mph - N/A   Overcast
6:32 AM 69.8 °F - 64.4 °F 83% 30.09 in 10.0 mi SSE 5.8 mph - N/A Thunderstorm Overcast
6:52 AM 69.8 °F - 64.4 °F 83% 30.09 in 10.0 mi SSE 5.8 mph - N/A   Overcast
7:13 AM 69.8 °F - 62.6 °F 78% 30.08 in 10.0 mi South 9.2 mph - N/A   Overcast
7:32 AM 69.8 °F - 62.6 °F 78% 30.07 in 10.0 mi South 9.2 mph - N/A   Mostly Cloudy
7:52 AM 69.8 °F - 62.6 °F 78% 30.07 in 10.0 mi South 9.2 mph - N/A   Mostly Cloudy
8:13 AM 71.6 °F - 62.6 °F 73% 30.06 in 10.0 mi South 9.2 mph - N/A   Mostly Cloudy
8:33 AM 71.6 °F - 60.8 °F 69% 30.05 in 10.0 mi South 10.4 mph - N/A   Scattered Clouds
8:52 AM 73.4 °F - 60.8 °F 65% 30.05 in 10.0 mi South 10.4 mph - N/A   Scattered Clouds
9:13 AM 75.2 °F - 62.6 °F 65% 30.04 in 10.0 mi South 10.4 mph - N/A   Clear
9:32 AM 77.0 °F - 62.6 °F 61% 30.04 in 10.0 mi South 13.8 mph 19.6 mph N/A   Clear
9:52 AM 78.8 °F - 62.6 °F 57% 30.03 in 10.0 mi South 10.4 mph 17.3 mph N/A   Clear
10:12 AM 80.6 °F 81.8 °F 62.6 °F 54% 30.03 in 10.0 mi South 13.8 mph 18.4 mph N/A   Clear
10:32 AM 80.6 °F 81.8 °F 62.6 °F 54% 30.02 in 10.0 mi South 15.0 mph 20.7 mph N/A   Clear
10:53 AM 82.4 °F 83.9 °F 64.4 °F 54% 30.02 in 10.0 mi South 15.0 mph 18.4 mph N/A   Unknown
11:12 AM 82.4 °F 83.9 °F 64.4 °F 54% 30.01 in 10.0 mi South 16.1 mph 19.6 mph N/A   Clear
11:32 AM 82.4 °F 83.9 °F 64.4 °F 54% 30.00 in 10.0 mi South 16.1 mph 20.7 mph N/A   Clear
11:53 AM 84.2 °F 85.6 °F 64.4 °F 51% 30.00 in 10.0 mi South 16.1 mph 20.7 mph N/A   Clear
12:12 PM 86.0 °F 87.3 °F 64.4 °F 48% 29.99 in 10.0 mi South 13.8 mph 20.7 mph N/A   Clear
12:32 PM 87.8 °F 89.4 °F 64.4 °F 46% 29.98 in 10.0 mi South 12.7 mph 26.5 mph N/A   Clear
12:53 PM 87.8 °F 89.4 °F 64.4 °F 46% 29.97 in 10.0 mi South 15.0 mph 24.2 mph N/A   Clear
1:12 PM 89.6 °F 91.1 °F 64.4 °F 43% 29.97 in 10.0 mi South 16.1 mph 20.7 mph N/A   Clear
1:33 PM 89.6 °F 91.1 °F 64.4 °F 43% 29.96 in 10.0 mi South 15.0 mph 23.0 mph N/A   Clear
1:52 PM 89.6 °F 91.1 °F 64.4 °F 43% 29.96 in 10.0 mi SSE 19.6 mph 24.2 mph N/A   Clear
2:12 PM 89.6 °F 91.1 °F 64.4 °F 43% 29.96 in 10.0 mi SSE 13.8 mph 20.7 mph N/A   Clear
2:33 PM 89.6 °F 91.1 °F 64.4 °F 43% 29.94 in 10.0 mi South 18.4 mph 24.2 mph N/A   Clear
2:52 PM 89.6 °F 91.1 °F 64.4 °F 43% 29.94 in 10.0 mi South 17.3 mph 21.9 mph N/A   Clear
3:12 PM 89.6 °F 91.1 °F 64.4 °F 43% 29.93 in 10.0 mi SSE 11.5 mph 21.9 mph N/A   Clear
3:33 PM 89.6 °F 91.1 °F 64.4 °F 43% 29.92 in 10.0 mi South 16.1 mph 21.9 mph N/A   Clear
3:52 PM 89.6 °F 91.1 °F 64.4 °F 43% 29.92 in 10.0 mi South 13.8 mph 21.9 mph N/A   Clear
4:12 PM 89.6 °F 91.1 °F 64.4 °F 43% 29.91 in 10.0 mi South 16.1 mph 23.0 mph N/A   Clear
4:33 PM 89.6 °F 92.2 °F 66.2 °F 46% 29.91 in 10.0 mi South 11.5 mph 16.1 mph N/A   Clear
4:52 PM 89.6 °F 91.1 °F 64.4 °F 43% 29.90 in 10.0 mi South 6.9 mph - N/A   Clear
5:12 PM 89.6 °F 91.1 °F 64.4 °F 43% 29.90 in 10.0 mi South 10.4 mph 17.3 mph N/A   Clear
5:33 PM 87.8 °F 90.4 °F 66.2 °F 49% 29.90 in 10.0 mi South 9.2 mph - N/A   Clear
5:52 PM 87.8 °F 90.4 °F 66.2 °F 49% 29.90 in 10.0 mi South 5.8 mph - N/A   Clear
6:12 PM 87.8 °F 90.4 °F 66.2 °F 49% 29.90 in 10.0 mi South 6.9 mph - N/A   Clear
6:33 PM 86.0 °F 88.2 °F 66.2 °F 51% 29.90 in 10.0 mi SSW 9.2 mph - N/A   Clear
6:52 PM 86.0 °F 88.2 °F 66.2 °F 51% 29.90 in 10.0 mi SSW 9.2 mph - N/A   Clear
7:12 PM 84.2 °F 86.6 °F 66.2 °F 55% 29.90 in 10.0 mi SSW 6.9 mph - N/A   Clear
7:33 PM 82.4 °F 85.4 °F 68.0 °F 62% 29.91 in 10.0 mi SSW 6.9 mph - N/A   Clear
7:52 PM 80.6 °F 83.2 °F 68.0 °F 65% 29.91 in 10.0 mi SSW 6.9 mph - N/A   Clear
8:12 PM 80.6 °F 83.9 °F 69.8 °F 70% 29.90 in 10.0 mi SSW 6.9 mph - N/A   Clear
8:33 PM 80.6 °F 83.9 °F 69.8 °F 70% 29.91 in 10.0 mi SSW 6.9 mph - N/A   Clear
8:52 PM 80.6 °F 83.9 °F 69.8 °F 70% 29.90 in 10.0 mi South 6.9 mph - N/A   Clear
9:12 PM 80.6 °F 83.9 °F 69.8 °F 70% 29.91 in 10.0 mi South 4.6 mph - N/A   Clear
9:33 PM 78.8 °F - 69.8 °F 74% 29.90 in 10.0 mi SSW 6.9 mph - N/A   Clear
9:52 PM 78.8 °F - 69.8 °F 74% 29.91 in 10.0 mi SSW 4.6 mph - N/A   Clear
10:12 PM 78.8 °F - 69.8 °F 74% 29.91 in 10.0 mi SSW 4.6 mph - N/A   Clear
10:33 PM 78.8 °F - 69.8 °F 74% 29.91 in 10.0 mi SSW 3.5 mph - N/A   Clear
10:52 PM 77.0 °F - 69.8 °F 78% 29.91 in 10.0 mi South 4.6 mph - N/A   Clear
11:12 PM 75.2 °F - 69.8 °F 83% 29.91 in 10.0 mi SSW 4.6 mph - N/A   Clear
11:33 PM 75.2 °F - 68.0 °F 78% 29.92 in 10.0 mi SSW 4.6 mph - N/A   Clear
11:52 PM 75.2 °F - 68.0 °F 78% 29.92 in 10.0 mi SSW 5.8 mph - N/A   Clear